Year,Month,Day,Hour,Minute,Value (Times are PST for temperature in C)
2011,07,09,00,00,11.70
2011,07,09,00,01,11.70
2011,07,09,00,02,11.60
2011,07,09,00,03,11.60
2011,07,09,00,04,11.60
2011,07,09,00,05,11.60
2011,07,09,00,06,11.60
2011,07,09,00,07,11.60
2011,07,09,00,08,11.60
2011,07,09,00,09,11.60
2011,07,09,00,10,11.60
2011,07,09,00,11,11.60
2011,07,09,00,12,11.60
2011,07,09,00,13,11.60
2011,07,09,00,14,11.60
2011,07,09,00,15,11.60
2011,07,09,00,16,11.60
2011,07,09,00,17,11.60
2011,07,09,00,18,11.60
2011,07,09,00,19,11.60
2011,07,09,00,20,11.60
2011,07,09,00,21,11.60
2011,07,09,00,22,11.60
2011,07,09,00,23,11.60
2011,07,09,00,24,11.60
2011,07,09,00,25,11.60
2011,07,09,00,26,11.60
2011,07,09,00,27,11.60
2011,07,09,00,28,11.60
2011,07,09,00,29,11.60
2011,07,09,00,30,11.50
2011,07,09,00,31,11.50
2011,07,09,00,32,11.50
2011,07,09,00,33,11.40
2011,07,09,00,34,11.40
2011,07,09,00,35,11.40
2011,07,09,00,36,11.40
2011,07,09,00,37,11.40
2011,07,09,00,38,11.40
2011,07,09,00,39,11.40
2011,07,09,00,40,11.40
2011,07,09,00,41,11.30
2011,07,09,00,42,11.30
2011,07,09,00,43,11.30
2011,07,09,00,44,11.30
2011,07,09,00,45,11.30
2011,07,09,00,46,11.30
2011,07,09,00,47,11.30
2011,07,09,00,48,11.30
2011,07,09,00,49,11.30
2011,07,09,00,50,11.30
2011,07,09,00,51,11.30
2011,07,09,00,52,11.30
2011,07,09,00,53,11.30
2011,07,09,00,54,11.30
2011,07,09,00,55,11.30
2011,07,09,00,56,11.30
2011,07,09,00,57,11.30
2011,07,09,00,58,11.30
2011,07,09,00,59,11.30
2011,07,09,01,00,11.30
2011,07,09,01,01,11.30
2011,07,09,01,02,11.30
2011,07,09,01,03,11.30
2011,07,09,01,04,11.30
2011,07,09,01,05,11.20
2011,07,09,01,06,11.20
2011,07,09,01,07,11.20
2011,07,09,01,08,11.20
2011,07,09,01,09,11.20
2011,07,09,01,10,11.20
2011,07,09,01,11,11.20
2011,07,09,01,12,11.20
2011,07,09,01,13,11.20
2011,07,09,01,14,11.20
2011,07,09,01,15,11.20
2011,07,09,01,16,11.20
2011,07,09,01,17,11.20
2011,07,09,01,18,11.20
2011,07,09,01,19,11.20
2011,07,09,01,20,11.20
2011,07,09,01,21,11.20
2011,07,09,01,22,11.20
2011,07,09,01,23,11.10
2011,07,09,01,24,11.10
2011,07,09,01,25,11.10
2011,07,09,01,26,11.10
2011,07,09,01,27,11.10
2011,07,09,01,28,11.10
2011,07,09,01,29,11.10
2011,07,09,01,30,11.10
2011,07,09,01,31,11.10
2011,07,09,01,32,11.10
2011,07,09,01,33,11.10
2011,07,09,01,34,11.10
2011,07,09,01,35,11.10
2011,07,09,01,36,11.10
2011,07,09,01,37,11.10
2011,07,09,01,38,11.10
2011,07,09,01,39,11.00
2011,07,09,01,40,11.00
2011,07,09,01,41,11.00
2011,07,09,01,42,10.90
2011,07,09,01,43,10.90
2011,07,09,01,44,10.90
2011,07,09,01,45,10.90
2011,07,09,01,46,10.90
2011,07,09,01,47,10.90
2011,07,09,01,48,10.80
2011,07,09,01,49,10.80
2011,07,09,01,50,10.80
2011,07,09,01,51,10.80
2011,07,09,01,52,10.80
2011,07,09,01,53,10.80
2011,07,09,01,54,10.80
2011,07,09,01,55,10.80
2011,07,09,01,56,10.70
2011,07,09,01,57,10.70
2011,07,09,01,58,10.70
2011,07,09,01,59,10.70
2011,07,09,02,00,10.70
2011,07,09,02,01,10.70
2011,07,09,02,02,10.60
2011,07,09,02,03,10.60
2011,07,09,02,04,10.60
2011,07,09,02,05,10.60
2011,07,09,02,06,10.60
2011,07,09,02,07,10.60
2011,07,09,02,08,10.60
2011,07,09,02,09,10.60
2011,07,09,02,10,10.60
2011,07,09,02,11,10.50
2011,07,09,02,12,10.50
2011,07,09,02,13,10.50
2011,07,09,02,14,10.50
2011,07,09,02,15,10.50
2011,07,09,02,16,10.50
2011,07,09,02,17,10.50
2011,07,09,02,18,10.50
2011,07,09,02,19,10.50
2011,07,09,02,20,10.50
2011,07,09,02,21,10.50
2011,07,09,02,22,10.50
2011,07,09,02,23,10.50
2011,07,09,02,24,10.50
2011,07,09,02,25,10.50
2011,07,09,02,26,10.50
2011,07,09,02,27,10.50
2011,07,09,02,28,10.50
2011,07,09,02,29,10.50
2011,07,09,02,30,10.50
2011,07,09,02,31,10.50
2011,07,09,02,32,10.50
2011,07,09,02,33,10.50
2011,07,09,02,34,10.50
2011,07,09,02,35,10.50
2011,07,09,02,36,10.50
2011,07,09,02,37,10.50
2011,07,09,02,38,10.50
2011,07,09,02,39,10.50
2011,07,09,02,40,10.40
2011,07,09,02,41,10.40
2011,07,09,02,42,10.40
2011,07,09,02,43,10.40
2011,07,09,02,44,10.40
2011,07,09,02,45,10.40
2011,07,09,02,46,10.40
2011,07,09,02,47,10.40
2011,07,09,02,48,10.40
2011,07,09,02,49,10.30
2011,07,09,02,50,10.30
2011,07,09,02,51,10.30
2011,07,09,02,52,10.30
2011,07,09,02,53,10.30
2011,07,09,02,54,10.30
2011,07,09,02,55,10.30
2011,07,09,02,56,10.30
2011,07,09,02,57,10.30
2011,07,09,02,58,10.30
2011,07,09,02,59,10.30
2011,07,09,03,00,10.30
2011,07,09,03,01,10.30
2011,07,09,03,02,10.20
2011,07,09,03,03,10.20
2011,07,09,03,04,10.20
2011,07,09,03,05,10.20
2011,07,09,03,06,10.20
2011,07,09,03,07,10.20
2011,07,09,03,08,10.20
2011,07,09,03,09,10.20
2011,07,09,03,10,10.20
2011,07,09,03,11,10.20
2011,07,09,03,12,10.20
2011,07,09,03,13,10.20
2011,07,09,03,14,10.20
2011,07,09,03,15,10.20
2011,07,09,03,16,10.20
2011,07,09,03,17,10.20
2011,07,09,03,18,10.20
2011,07,09,03,19,10.10
2011,07,09,03,20,10.10
2011,07,09,03,21,10.10
2011,07,09,03,22,10.10
2011,07,09,03,23,10.10
2011,07,09,03,24,10.10
2011,07,09,03,25,10.10
2011,07,09,03,26,10.10
2011,07,09,03,27,10.10
2011,07,09,03,28,10.10
2011,07,09,03,29,10.00
2011,07,09,03,30,10.00
2011,07,09,03,31,10.00
2011,07,09,03,32,10.00
2011,07,09,03,33,10.00
2011,07,09,03,34,10.00
2011,07,09,03,35,9.90
2011,07,09,03,36,9.90
2011,07,09,03,37,9.90
2011,07,09,03,38,9.90
2011,07,09,03,39,9.90
2011,07,09,03,40,9.90
2011,07,09,03,41,9.90
2011,07,09,03,42,9.90
2011,07,09,03,43,9.90
2011,07,09,03,44,9.80
2011,07,09,03,45,9.80
2011,07,09,03,46,9.80
2011,07,09,03,47,9.80
2011,07,09,03,48,9.80
2011,07,09,03,49,9.70
2011,07,09,03,50,9.70
2011,07,09,03,51,9.70
2011,07,09,03,52,9.70
2011,07,09,03,53,9.70
2011,07,09,03,54,9.70
2011,07,09,03,55,9.70
2011,07,09,03,56,9.70
2011,07,09,03,57,9.70
2011,07,09,03,58,9.70
2011,07,09,03,59,9.60
2011,07,09,04,00,9.60
2011,07,09,04,01,9.60
2011,07,09,04,02,9.60
2011,07,09,04,03,9.60
2011,07,09,04,04,9.60
2011,07,09,04,05,9.60
2011,07,09,04,06,9.60
2011,07,09,04,07,9.60
2011,07,09,04,08,9.60
2011,07,09,04,09,9.60
2011,07,09,04,10,9.60
2011,07,09,04,11,9.60
2011,07,09,04,12,9.60
2011,07,09,04,13,9.50
2011,07,09,04,14,9.50
2011,07,09,04,15,9.50
2011,07,09,04,16,9.50
2011,07,09,04,17,9.50
2011,07,09,04,18,9.50
2011,07,09,04,19,9.50
2011,07,09,04,20,9.50
2011,07,09,04,21,9.50
2011,07,09,04,22,9.50
2011,07,09,04,23,9.50
2011,07,09,04,24,9.60
2011,07,09,04,25,9.60
2011,07,09,04,26,9.60
2011,07,09,04,27,9.60
2011,07,09,04,28,9.60
2011,07,09,04,29,9.60
2011,07,09,04,30,9.60
2011,07,09,04,31,9.60
2011,07,09,04,32,9.60
2011,07,09,04,33,9.60
2011,07,09,04,34,9.60
2011,07,09,04,35,9.70
2011,07,09,04,36,9.70
2011,07,09,04,37,9.70
2011,07,09,04,38,9.70
2011,07,09,04,39,9.70
2011,07,09,04,40,9.70
2011,07,09,04,41,9.80
2011,07,09,04,42,9.80
2011,07,09,04,43,9.80
2011,07,09,04,44,9.80
2011,07,09,04,45,9.80
2011,07,09,04,46,9.80
2011,07,09,04,47,9.80
2011,07,09,04,48,9.80
2011,07,09,04,49,9.80
2011,07,09,04,50,9.70
2011,07,09,04,51,9.70
2011,07,09,04,52,9.70
2011,07,09,04,53,9.70
2011,07,09,04,54,9.70
2011,07,09,04,55,9.70
2011,07,09,04,56,9.70
2011,07,09,04,57,9.70
2011,07,09,04,58,9.60
2011,07,09,04,59,9.60
2011,07,09,05,00,9.60
2011,07,09,05,01,9.60
2011,07,09,05,02,9.60
2011,07,09,05,03,9.60
2011,07,09,05,04,9.60
2011,07,09,05,05,9.60
2011,07,09,05,06,9.60
2011,07,09,05,07,9.60
2011,07,09,05,08,9.60
2011,07,09,05,09,9.60
2011,07,09,05,10,9.60
2011,07,09,05,11,9.60
2011,07,09,05,12,9.60
2011,07,09,05,13,9.60
2011,07,09,05,14,9.60
2011,07,09,05,15,9.60
2011,07,09,05,16,9.60
2011,07,09,05,17,9.60
2011,07,09,05,18,9.60
2011,07,09,05,19,9.60
2011,07,09,05,20,9.60
2011,07,09,05,21,9.60
2011,07,09,05,22,9.60
2011,07,09,05,23,9.60
2011,07,09,05,24,9.60
2011,07,09,05,25,9.60
2011,07,09,05,26,9.60
2011,07,09,05,27,9.60
2011,07,09,05,28,9.50
2011,07,09,05,29,9.50
2011,07,09,05,30,9.50
2011,07,09,05,31,9.50
2011,07,09,05,32,9.50
2011,07,09,05,33,9.40
2011,07,09,05,34,9.40
2011,07,09,05,35,9.40
2011,07,09,05,36,9.40
2011,07,09,05,37,9.40
2011,07,09,05,38,9.40
2011,07,09,05,39,9.40
2011,07,09,05,40,9.30
2011,07,09,05,41,9.30
2011,07,09,05,42,9.30
2011,07,09,05,43,9.30
2011,07,09,05,44,9.30
2011,07,09,05,45,9.30
2011,07,09,05,46,9.20
2011,07,09,05,47,9.20
2011,07,09,05,48,9.20
2011,07,09,05,49,9.20
2011,07,09,05,50,9.20
2011,07,09,05,51,9.20
2011,07,09,05,52,9.10
2011,07,09,05,53,9.10
2011,07,09,05,54,9.10
2011,07,09,05,55,9.10
2011,07,09,05,56,9.10
2011,07,09,05,57,9.10
2011,07,09,05,58,9.10
2011,07,09,05,59,9.00
2011,07,09,06,00,9.00
2011,07,09,06,01,9.00
2011,07,09,06,02,9.00
2011,07,09,06,03,9.00
2011,07,09,06,04,9.00
2011,07,09,06,05,9.10
2011,07,09,06,06,9.10
2011,07,09,06,07,9.10
2011,07,09,06,08,9.10
2011,07,09,06,09,9.10
2011,07,09,06,10,9.20
2011,07,09,06,11,9.20
2011,07,09,06,12,9.20
2011,07,09,06,13,9.30
2011,07,09,06,14,9.30
2011,07,09,06,15,9.30
2011,07,09,06,16,9.30
2011,07,09,06,17,9.30
2011,07,09,06,18,9.30
2011,07,09,06,19,9.30
2011,07,09,06,20,9.30
2011,07,09,06,21,9.30
2011,07,09,06,22,9.30
2011,07,09,06,23,9.30
2011,07,09,06,24,9.30
2011,07,09,06,25,9.30
2011,07,09,06,26,9.30
2011,07,09,06,27,9.30
2011,07,09,06,28,9.30
2011,07,09,06,29,9.30
2011,07,09,06,30,9.30
2011,07,09,06,31,9.30
2011,07,09,06,32,9.30
2011,07,09,06,33,9.30
2011,07,09,06,34,9.30
2011,07,09,06,35,9.30
2011,07,09,06,36,9.30
2011,07,09,06,37,9.30
2011,07,09,06,38,9.30
2011,07,09,06,39,9.30
2011,07,09,06,40,9.30
2011,07,09,06,41,9.30
2011,07,09,06,42,9.40
2011,07,09,06,43,9.40
2011,07,09,06,44,9.40
2011,07,09,06,45,9.50
2011,07,09,06,46,9.50
2011,07,09,06,47,9.60
2011,07,09,06,48,9.60
2011,07,09,06,49,9.60
2011,07,09,06,50,9.70
2011,07,09,06,51,9.70
2011,07,09,06,52,9.70
2011,07,09,06,53,9.70
2011,07,09,06,54,9.80
2011,07,09,06,55,9.80
2011,07,09,06,56,9.80
2011,07,09,06,57,9.80
2011,07,09,06,58,9.90
2011,07,09,06,59,9.90
2011,07,09,07,00,9.90
2011,07,09,07,01,10.00
2011,07,09,07,02,10.00
2011,07,09,07,03,10.00
2011,07,09,07,04,10.10
2011,07,09,07,05,10.10
2011,07,09,07,06,10.10
2011,07,09,07,07,10.10
2011,07,09,07,08,10.20
2011,07,09,07,09,10.20
2011,07,09,07,10,10.20
2011,07,09,07,11,10.20
2011,07,09,07,12,10.20
2011,07,09,07,13,10.20
2011,07,09,07,14,10.20
2011,07,09,07,15,10.30
2011,07,09,07,16,10.30
2011,07,09,07,17,10.30
2011,07,09,07,18,10.40
2011,07,09,07,19,10.40
2011,07,09,07,20,10.40
2011,07,09,07,21,10.50
2011,07,09,07,22,10.50
2011,07,09,07,23,10.60
2011,07,09,07,24,10.60
2011,07,09,07,25,10.60
2011,07,09,07,26,10.70
2011,07,09,07,27,10.70
2011,07,09,07,28,10.80
2011,07,09,07,29,10.80
2011,07,09,07,30,10.90
2011,07,09,07,31,11.00
2011,07,09,07,32,11.10
2011,07,09,07,33,11.20
2011,07,09,07,34,11.30
2011,07,09,07,35,11.40
2011,07,09,07,36,11.40
2011,07,09,07,37,11.50
2011,07,09,07,38,11.60
2011,07,09,07,39,11.70
2011,07,09,07,40,11.80
2011,07,09,07,41,11.80
2011,07,09,07,42,11.80
2011,07,09,07,43,11.90
2011,07,09,07,44,11.90
2011,07,09,07,45,12.00
2011,07,09,07,46,12.00
2011,07,09,07,47,12.00
2011,07,09,07,48,12.10
2011,07,09,07,49,12.10
2011,07,09,07,50,12.20
2011,07,09,07,51,12.20
2011,07,09,07,52,12.20
2011,07,09,07,53,12.30
2011,07,09,07,54,12.30
2011,07,09,07,55,12.30
2011,07,09,07,56,12.40
2011,07,09,07,57,12.40
2011,07,09,07,58,12.40
2011,07,09,07,59,12.50
2011,07,09,08,00,12.50
2011,07,09,08,01,12.60
2011,07,09,08,02,12.60
2011,07,09,08,03,12.70
2011,07,09,08,04,12.70
2011,07,09,08,05,12.80
2011,07,09,08,06,12.80
2011,07,09,08,07,12.90
2011,07,09,08,08,12.90
2011,07,09,08,09,13.00
2011,07,09,08,10,13.00
2011,07,09,08,11,13.10
2011,07,09,08,12,13.10
2011,07,09,08,13,13.20
2011,07,09,08,14,13.20
2011,07,09,08,15,13.30
2011,07,09,08,16,13.30
2011,07,09,08,17,13.40
2011,07,09,08,18,13.50
2011,07,09,08,19,13.50
2011,07,09,08,20,13.60
2011,07,09,08,21,13.70
2011,07,09,08,22,13.70
2011,07,09,08,23,13.80
2011,07,09,08,24,13.90
2011,07,09,08,25,14.00
2011,07,09,08,26,14.10
2011,07,09,08,27,14.20
2011,07,09,08,28,14.30
2011,07,09,08,29,14.40
2011,07,09,08,30,14.40
2011,07,09,08,31,14.50
2011,07,09,08,32,14.50
2011,07,09,08,33,14.60
2011,07,09,08,34,14.60
2011,07,09,08,35,14.60
2011,07,09,08,36,14.70
2011,07,09,08,37,14.80
2011,07,09,08,38,14.90
2011,07,09,08,39,15.00
2011,07,09,08,40,15.00
2011,07,09,08,41,15.10
2011,07,09,08,42,15.10
2011,07,09,08,43,15.20
2011,07,09,08,44,15.30
2011,07,09,08,45,15.30
2011,07,09,08,46,15.40
2011,07,09,08,47,15.40
2011,07,09,08,48,15.50
2011,07,09,08,49,15.60
2011,07,09,08,50,15.60
2011,07,09,08,51,15.70
2011,07,09,08,52,15.70
2011,07,09,08,53,15.70
2011,07,09,08,54,15.70
2011,07,09,08,55,15.70
2011,07,09,08,56,15.60
2011,07,09,08,57,15.70
2011,07,09,08,58,15.70
2011,07,09,08,59,15.70
2011,07,09,09,00,15.70
2011,07,09,09,01,15.70
2011,07,09,09,02,15.70
2011,07,09,09,03,15.80
2011,07,09,09,04,15.80
2011,07,09,09,05,15.90
2011,07,09,09,06,16.00
2011,07,09,09,07,16.00
2011,07,09,09,08,16.10
2011,07,09,09,09,16.10
2011,07,09,09,10,16.10
2011,07,09,09,11,16.20
2011,07,09,09,12,16.20
2011,07,09,09,13,16.20
2011,07,09,09,14,16.20
2011,07,09,09,15,16.20
2011,07,09,09,16,16.20
2011,07,09,09,17,16.10
2011,07,09,09,18,16.10
2011,07,09,09,19,16.10
2011,07,09,09,20,16.20
2011,07,09,09,21,16.20
2011,07,09,09,22,16.20
2011,07,09,09,23,16.20
2011,07,09,09,24,16.30
2011,07,09,09,25,16.30
2011,07,09,09,26,16.40
2011,07,09,09,27,16.50
2011,07,09,09,28,16.50
2011,07,09,09,29,16.50
2011,07,09,09,30,16.60
2011,07,09,09,31,16.60
2011,07,09,09,32,16.70
2011,07,09,09,33,16.70
2011,07,09,09,34,16.70
2011,07,09,09,35,16.70
2011,07,09,09,36,16.70
2011,07,09,09,37,16.70
2011,07,09,09,38,16.70
2011,07,09,09,39,16.60
2011,07,09,09,40,16.60
2011,07,09,09,41,16.50
2011,07,09,09,42,16.50
2011,07,09,09,43,16.50
2011,07,09,09,44,16.60
2011,07,09,09,45,16.70
2011,07,09,09,46,16.70
2011,07,09,09,47,16.70
2011,07,09,09,48,16.80
2011,07,09,09,49,16.80
2011,07,09,09,50,16.90
2011,07,09,09,51,16.90
2011,07,09,09,52,16.90
2011,07,09,09,53,16.90
2011,07,09,09,54,16.80
2011,07,09,09,55,16.70
2011,07,09,09,56,16.60
2011,07,09,09,57,16.50
2011,07,09,09,58,16.50
2011,07,09,09,59,16.50
2011,07,09,10,00,16.50
2011,07,09,10,01,16.50
2011,07,09,10,02,16.50
2011,07,09,10,03,16.60
2011,07,09,10,04,16.60
2011,07,09,10,05,16.60
2011,07,09,10,06,16.70
2011,07,09,10,07,16.70
2011,07,09,10,08,16.70
2011,07,09,10,09,16.80
2011,07,09,10,10,16.90
2011,07,09,10,11,16.90
2011,07,09,10,12,16.90
2011,07,09,10,13,16.90
2011,07,09,10,14,17.00
2011,07,09,10,15,17.00
2011,07,09,10,16,17.00
2011,07,09,10,17,17.10
2011,07,09,10,18,17.10
2011,07,09,10,19,17.10
2011,07,09,10,20,17.10
2011,07,09,10,21,17.00
2011,07,09,10,22,17.00
2011,07,09,10,23,17.00
2011,07,09,10,24,17.00
2011,07,09,10,25,17.00
2011,07,09,10,26,17.10
2011,07,09,10,27,17.20
2011,07,09,10,28,17.30
2011,07,09,10,29,17.30
2011,07,09,10,30,17.20
2011,07,09,10,31,17.20
2011,07,09,10,32,17.20
2011,07,09,10,33,17.20
2011,07,09,10,34,17.20
2011,07,09,10,35,17.20
2011,07,09,10,36,17.20
2011,07,09,10,37,17.20
2011,07,09,10,38,17.20
2011,07,09,10,39,17.20
2011,07,09,10,40,17.20
2011,07,09,10,41,17.20
2011,07,09,10,42,17.20
2011,07,09,10,43,17.30
2011,07,09,10,44,17.30
2011,07,09,10,45,17.20
2011,07,09,10,46,17.20
2011,07,09,10,47,17.20
2011,07,09,10,48,17.20
2011,07,09,10,49,17.20
2011,07,09,10,50,17.30
2011,07,09,10,51,17.40
2011,07,09,10,52,17.50
2011,07,09,10,53,17.60
2011,07,09,10,54,17.60
2011,07,09,10,55,17.60
2011,07,09,10,56,17.50
2011,07,09,10,57,17.50
2011,07,09,10,58,17.50
2011,07,09,10,59,17.50
2011,07,09,11,00,17.50
2011,07,09,11,01,17.50
2011,07,09,11,02,17.40
2011,07,09,11,03,17.30
2011,07,09,11,04,17.30
2011,07,09,11,05,17.30
2011,07,09,11,06,17.30
2011,07,09,11,07,17.40
2011,07,09,11,08,17.40
2011,07,09,11,09,17.50
2011,07,09,11,10,17.60
2011,07,09,11,11,17.50
2011,07,09,11,12,17.50
2011,07,09,11,13,17.50
2011,07,09,11,14,17.50
2011,07,09,11,15,17.40
2011,07,09,11,16,17.50
2011,07,09,11,17,17.50
2011,07,09,11,18,17.60
2011,07,09,11,19,17.70
2011,07,09,11,20,17.80
2011,07,09,11,21,17.90
2011,07,09,11,22,18.00
2011,07,09,11,23,18.00
2011,07,09,11,24,18.00
2011,07,09,11,25,18.00
2011,07,09,11,26,17.90
2011,07,09,11,27,17.90
2011,07,09,11,28,17.90
2011,07,09,11,29,17.90
2011,07,09,11,30,17.80
2011,07,09,11,31,17.90
2011,07,09,11,32,18.00
2011,07,09,11,33,18.00
2011,07,09,11,34,18.10
2011,07,09,11,35,18.10
2011,07,09,11,36,18.20
2011,07,09,11,37,18.20
2011,07,09,11,38,18.30
2011,07,09,11,39,18.30
2011,07,09,11,40,18.40
2011,07,09,11,41,18.40
2011,07,09,11,42,18.30
2011,07,09,11,43,18.30
2011,07,09,11,44,18.20
2011,07,09,11,45,18.20
2011,07,09,11,46,18.10
2011,07,09,11,47,17.90
2011,07,09,11,48,17.90
2011,07,09,11,49,17.90
2011,07,09,11,50,17.80
2011,07,09,11,51,17.80
2011,07,09,11,52,17.80
2011,07,09,11,53,17.80
2011,07,09,11,54,17.80
2011,07,09,11,55,17.80
2011,07,09,11,56,17.80
2011,07,09,11,57,17.80
2011,07,09,11,58,17.80
2011,07,09,11,59,17.70
2011,07,09,12,00,17.70
2011,07,09,12,01,17.60
2011,07,09,12,02,17.70
2011,07,09,12,03,17.70
2011,07,09,12,04,17.70
2011,07,09,12,05,17.80
2011,07,09,12,06,17.80
2011,07,09,12,07,17.80
2011,07,09,12,08,17.90
2011,07,09,12,09,17.90
2011,07,09,12,10,18.00
2011,07,09,12,11,18.00
2011,07,09,12,12,18.00
2011,07,09,12,13,18.10
2011,07,09,12,14,18.20
2011,07,09,12,15,18.20
2011,07,09,12,16,18.20
2011,07,09,12,17,18.20
2011,07,09,12,18,18.20
2011,07,09,12,19,18.20
2011,07,09,12,20,18.20
2011,07,09,12,21,18.20
2011,07,09,12,22,18.20
2011,07,09,12,23,18.20
2011,07,09,12,24,18.20
2011,07,09,12,25,18.20
2011,07,09,12,26,18.10
2011,07,09,12,27,18.10
2011,07,09,12,28,18.20
2011,07,09,12,29,18.20
2011,07,09,12,30,18.30
2011,07,09,12,31,18.30
2011,07,09,12,32,18.40
2011,07,09,12,33,18.40
2011,07,09,12,34,18.40
2011,07,09,12,35,18.30
2011,07,09,12,36,18.30
2011,07,09,12,37,18.30
2011,07,09,12,38,18.30
2011,07,09,12,39,18.40
2011,07,09,12,40,18.40
2011,07,09,12,41,18.30
2011,07,09,12,42,18.20
2011,07,09,12,43,18.10
2011,07,09,12,44,18.10
2011,07,09,12,45,18.00
2011,07,09,12,46,18.00
2011,07,09,12,47,18.00
2011,07,09,12,48,18.10
2011,07,09,12,49,18.10
2011,07,09,12,50,18.20
2011,07,09,12,51,18.20
2011,07,09,12,52,18.20
2011,07,09,12,53,18.30
2011,07,09,12,54,18.30
2011,07,09,12,55,18.30
2011,07,09,12,56,18.30
2011,07,09,12,57,18.30
2011,07,09,12,58,18.30
2011,07,09,12,59,18.40
2011,07,09,13,00,18.30
2011,07,09,13,01,18.30
2011,07,09,13,02,18.30
2011,07,09,13,03,18.30
2011,07,09,13,04,18.30
2011,07,09,13,05,18.30
2011,07,09,13,06,18.40
2011,07,09,13,07,18.40
2011,07,09,13,08,18.40
2011,07,09,13,09,18.50
2011,07,09,13,10,18.60
2011,07,09,13,11,18.60
2011,07,09,13,12,18.70
2011,07,09,13,13,18.80
2011,07,09,13,14,18.90
2011,07,09,13,15,19.00
2011,07,09,13,16,19.20
2011,07,09,13,17,19.30
2011,07,09,13,18,19.30
2011,07,09,13,19,19.40
2011,07,09,13,20,19.40
2011,07,09,13,21,19.40
2011,07,09,13,22,19.40
2011,07,09,13,23,19.50
2011,07,09,13,24,19.60
2011,07,09,13,25,19.60
2011,07,09,13,26,19.60
2011,07,09,13,27,19.70
2011,07,09,13,28,19.70
2011,07,09,13,29,19.70
2011,07,09,13,30,19.60
2011,07,09,13,31,19.60
2011,07,09,13,32,19.60
2011,07,09,13,33,19.50
2011,07,09,13,34,19.40
2011,07,09,13,35,19.30
2011,07,09,13,36,19.30
2011,07,09,13,37,19.30
2011,07,09,13,38,19.30
2011,07,09,13,39,19.10
2011,07,09,13,40,18.90
2011,07,09,13,41,18.80
2011,07,09,13,42,18.70
2011,07,09,13,43,18.70
2011,07,09,13,44,18.60
2011,07,09,13,45,18.60
2011,07,09,13,46,18.60
2011,07,09,13,47,18.70
2011,07,09,13,48,18.70
2011,07,09,13,49,18.70
2011,07,09,13,50,18.70
2011,07,09,13,51,18.70
2011,07,09,13,52,18.80
2011,07,09,13,53,18.80
2011,07,09,13,54,18.80
2011,07,09,13,55,18.80
2011,07,09,13,56,18.80
2011,07,09,13,57,18.90
2011,07,09,13,58,19.00
2011,07,09,13,59,19.10
2011,07,09,14,00,19.10
2011,07,09,14,01,19.20
2011,07,09,14,02,19.20
2011,07,09,14,03,19.10
2011,07,09,14,04,19.00
2011,07,09,14,05,19.00
2011,07,09,14,06,19.00
2011,07,09,14,07,19.00
2011,07,09,14,08,19.00
2011,07,09,14,09,18.90
2011,07,09,14,10,19.00
2011,07,09,14,11,19.00
2011,07,09,14,12,19.10
2011,07,09,14,13,19.10
2011,07,09,14,14,19.10
2011,07,09,14,15,18.90
2011,07,09,14,16,18.80
2011,07,09,14,17,18.70
2011,07,09,14,18,18.70
2011,07,09,14,19,18.70
2011,07,09,14,20,18.70
2011,07,09,14,21,18.70
2011,07,09,14,22,18.70
2011,07,09,14,23,18.70
2011,07,09,14,24,18.70
2011,07,09,14,25,18.80
2011,07,09,14,26,18.90
2011,07,09,14,27,18.90
2011,07,09,14,28,19.00
2011,07,09,14,29,19.10
2011,07,09,14,30,19.10
2011,07,09,14,31,19.10
2011,07,09,14,32,19.10
2011,07,09,14,33,19.20
2011,07,09,14,34,19.20
2011,07,09,14,35,19.20
2011,07,09,14,36,19.20
2011,07,09,14,37,19.30
2011,07,09,14,38,19.30
2011,07,09,14,39,19.30
2011,07,09,14,40,19.30
2011,07,09,14,41,19.30
2011,07,09,14,42,19.30
2011,07,09,14,43,19.30
2011,07,09,14,44,19.20
2011,07,09,14,45,19.20
2011,07,09,14,46,19.20
2011,07,09,14,47,19.30
2011,07,09,14,48,19.30
2011,07,09,14,49,19.30
2011,07,09,14,50,19.30
2011,07,09,14,51,19.30
2011,07,09,14,52,19.30
2011,07,09,14,53,19.30
2011,07,09,14,54,19.30
2011,07,09,14,55,19.30
2011,07,09,14,56,19.30
2011,07,09,14,57,19.30
2011,07,09,14,58,19.30
2011,07,09,14,59,19.30
2011,07,09,15,00,19.20
2011,07,09,15,01,19.20
2011,07,09,15,02,19.20
2011,07,09,15,03,19.30
2011,07,09,15,04,19.30
2011,07,09,15,05,19.30
2011,07,09,15,06,19.30
2011,07,09,15,07,19.30
2011,07,09,15,08,19.20
2011,07,09,15,09,19.10
2011,07,09,15,10,19.10
2011,07,09,15,11,19.00
2011,07,09,15,12,19.00
2011,07,09,15,13,19.10
2011,07,09,15,14,19.10
2011,07,09,15,15,19.20
2011,07,09,15,16,19.10
2011,07,09,15,17,19.10
2011,07,09,15,18,19.10
2011,07,09,15,19,19.10
2011,07,09,15,20,19.10
2011,07,09,15,21,19.10
2011,07,09,15,22,19.10
2011,07,09,15,23,19.10
2011,07,09,15,24,19.00
2011,07,09,15,25,18.90
2011,07,09,15,26,18.70
2011,07,09,15,27,18.60
2011,07,09,15,28,18.60
2011,07,09,15,29,18.60
2011,07,09,15,30,18.60
2011,07,09,15,31,18.50
2011,07,09,15,32,18.50
2011,07,09,15,33,18.60
2011,07,09,15,34,18.60
2011,07,09,15,35,18.60
2011,07,09,15,36,18.50
2011,07,09,15,37,18.50
2011,07,09,15,38,18.50
2011,07,09,15,39,18.50
2011,07,09,15,40,18.50
2011,07,09,15,41,18.60
2011,07,09,15,42,18.70
2011,07,09,15,43,18.70
2011,07,09,15,44,18.70
2011,07,09,15,45,18.70
2011,07,09,15,46,18.70
2011,07,09,15,47,18.70
2011,07,09,15,48,18.80
2011,07,09,15,49,18.80
2011,07,09,15,50,18.80
2011,07,09,15,51,18.90
2011,07,09,15,52,19.00
2011,07,09,15,53,19.00
2011,07,09,15,54,19.10
2011,07,09,15,55,19.10
2011,07,09,15,56,19.10
2011,07,09,15,57,18.90
2011,07,09,15,58,18.80
2011,07,09,15,59,18.80
2011,07,09,16,00,18.80
2011,07,09,16,01,18.80
2011,07,09,16,02,18.90
2011,07,09,16,03,18.90
2011,07,09,16,04,18.90
2011,07,09,16,05,18.90
2011,07,09,16,06,18.90
2011,07,09,16,07,18.80
2011,07,09,16,08,18.60
2011,07,09,16,09,18.60
2011,07,09,16,10,18.60
2011,07,09,16,11,18.60
2011,07,09,16,12,18.60
2011,07,09,16,13,18.70
2011,07,09,16,14,18.60
2011,07,09,16,15,18.50
2011,07,09,16,16,18.50
2011,07,09,16,17,18.60
2011,07,09,16,18,18.70
2011,07,09,16,19,18.70
2011,07,09,16,20,18.70
2011,07,09,16,21,18.70
2011,07,09,16,22,18.70
2011,07,09,16,23,18.60
2011,07,09,16,24,18.60
2011,07,09,16,25,18.70
2011,07,09,16,26,18.70
2011,07,09,16,27,18.70
2011,07,09,16,28,18.80
2011,07,09,16,29,18.80
2011,07,09,16,30,18.80
2011,07,09,16,31,18.80
2011,07,09,16,32,18.70
2011,07,09,16,33,18.70
2011,07,09,16,34,18.70
2011,07,09,16,35,18.70
2011,07,09,16,36,18.70
2011,07,09,16,37,18.70
2011,07,09,16,38,18.70
2011,07,09,16,39,18.70
2011,07,09,16,40,18.80
2011,07,09,16,41,18.80
2011,07,09,16,42,18.80
2011,07,09,16,43,18.70
2011,07,09,16,44,18.70
2011,07,09,16,45,18.70
2011,07,09,16,46,18.60
2011,07,09,16,47,18.60
2011,07,09,16,48,18.70
2011,07,09,16,49,18.70
2011,07,09,16,50,18.60
2011,07,09,16,51,18.60
2011,07,09,16,52,18.60
2011,07,09,16,53,18.60
2011,07,09,16,54,18.60
2011,07,09,16,55,18.60
2011,07,09,16,56,18.50
2011,07,09,16,57,18.50
2011,07,09,16,58,18.50
2011,07,09,16,59,18.50
2011,07,09,17,00,18.50
2011,07,09,17,01,18.50
2011,07,09,17,02,18.50
2011,07,09,17,03,18.60
2011,07,09,17,04,18.50
2011,07,09,17,05,18.50
2011,07,09,17,06,18.50
2011,07,09,17,07,18.50
2011,07,09,17,08,18.60
2011,07,09,17,09,18.60
2011,07,09,17,10,18.60
2011,07,09,17,11,18.50
2011,07,09,17,12,18.50
2011,07,09,17,13,18.40
2011,07,09,17,14,18.50
2011,07,09,17,15,18.50
2011,07,09,17,16,18.50
2011,07,09,17,17,18.50
2011,07,09,17,18,18.50
2011,07,09,17,19,18.50
2011,07,09,17,20,18.60
2011,07,09,17,21,18.60
2011,07,09,17,22,18.70
2011,07,09,17,23,18.70
2011,07,09,17,24,18.70
2011,07,09,17,25,18.70
2011,07,09,17,26,18.70
2011,07,09,17,27,18.80
2011,07,09,17,28,18.80